Pagina principale
METAR-TAF:

METAR-TAF

Aeroporti :

Aeroporto di Torino-Aeritalia

Torino, Italia

latitudine: 45-05-20N, longitudine: 007-36-20E, altezza: 288 m

Osservazione

Il bollettino è stato emesso 3 ore e 2 minuti fa, alle 16:50 UTC
Vento 5 kt da est
Temperature 30°C
Umidità 35%
Pressione 1011 hPa
Visibilità 10 km o più
Poco nuvoloso ad un'altezza di 3000 ft

METAR: LIMA 191650Z 08005KT 9999 FEW030 30/13 Q1011

Ora: 21:52 (19:52 UTC)


TAF: mancante

Osservazioni e previsioni meteorologiche di più di 4000 aeroporti (messaggi METAR e TAF).

Le stazioni disponibili sono rappresentate dai dischi gialli e rossi sulla carta.

Puntare il mouse per vedere il nome della stazione.

Clicca sopra per visualizzare le osservazioni e previsioni meteorologiche.

Per cambiare la mappa : fare clic sui pulsanti verdi con una croce nera per ingrandire, il pulsante verde con un trattino per diminuire, o sulla freccia verde per le mappe adiacenti.


METAR-TAF: